Caribou, ME

4:17 PM EST on February 20, 2017 (GMT -0500)
Caribou Municipal

Weather History for KCAR - July, 2013

Change the Weather History Date:

Sunday, July 7, 2013

  Actual Average Record
Temperature  
Mean Temperature 72 °F 65 °F  
Max Temperature 83 °F 76 °F 93 °F (1982)
Min Temperature 61 °F 55 °F 36 °F (1969)
Degree Days  
Heating Degree Days 0 2  
Month to date heating degree days 3 18  
Since 1 June heating degree days 181 183  
Since 1 July heating degree days 3 18  
Cooling Degree Days 7 2  
Month to date cooling degree days 52 14  
Year to date cooling degree days 83 53  
Since 1 June cooling degree days 75 48  
Growing Degree Days 23 (Base 50)    
Moisture  
Dew Point 56 °F    
Average Humidity 56    
Maximum Humidity 87    
Minimum Humidity 25    
Precipitation  
Precipitation 0.01 in 0.13 in 1.30 in (2016)
Month to date precipitation 0.02 0.95  
Year to date precipitation 20.10 17.85  
Snow  
Snow 0.00 in 0.00 in 0.00 in (2002)
Month to date snowfall 0.0 0.0  
Since 1 June snowfall 0.0 0.0  
Since 1 July snowfall 0.0 0.0  
Snow Depth 0.00 in    
Sea Level Pressure  
Sea Level Pressure 29.86 in    
Wind  
Wind Speed 8 mph (WNW)    
Max Wind Speed 17 mph    
Max Gust Speed 22 mph    
Visibility 10 miles    
Events      
T = Trace of Precipitation, MM = Missing Value Source: NWS Daily Summary

Daily Weather History Graph

Daily Weather History Graph

Search for Another Location

Airport or City:

Trip Planner

Search our weather history database for the weather conditions in past years. The results will help you decide how hot, cold, wet, or windy it might be!

Date:

Astronomy

Jul. 07, 2013 Rise Set
Actual Time 4:45 AM EDT 8:27 PM EDT
Civil Twilight 4:07 AM EDT 9:06 PM EDT
Nautical Twilight 3:14 AM EDT 9:58 PM EDT
Astronomical Twilight 2:01 AM EDT 11:11 PM EDT
Moon 4:23 AM EDT (7/7) 7:43 PM EDT (7/7)
Length of Visible Light 16h 59m
Length of Day
15h 42m
Waning Crescent, 0% of the Moon is Illuminated
Jul 7
Waning Crescent
Jul 8
New
Jul 15
First Quarter
Jul 22
Full
Jul 29
Last Quarter

Hourly Weather History & Observations

Time (EDT) Temp. Heat Index Dew Point Humidity Pressure Visibility Wind Dir Wind Speed Gust Speed Precip Events Conditions
12:54 AM 71.1 °F - 63.0 °F 75% 29.83 in 10.0 mi SW 5.8 mph - N/A   Clear
1:54 AM 72.0 °F - 64.0 °F 76% 29.82 in 10.0 mi WSW 9.2 mph - N/A   Clear
2:54 AM 71.1 °F - 64.0 °F 78% 29.82 in 10.0 mi WSW 8.1 mph - N/A   Clear
3:54 AM 70.0 °F - 63.0 °F 78% 29.82 in 10.0 mi WSW 4.6 mph - N/A   Partly Cloudy
4:54 AM 68.0 °F - 63.0 °F 84% 29.83 in 10.0 mi SSW 3.5 mph - N/A   Clear
5:54 AM 68.0 °F - 64.0 °F 87% 29.83 in 9.0 mi SW 3.5 mph - N/A   Partly Cloudy
6:54 AM 72.0 °F - 64.9 °F 78% 29.84 in 10.0 mi WSW 4.6 mph - N/A   Clear
7:54 AM 73.9 °F - 64.9 °F 73% 29.84 in 10.0 mi West 6.9 mph - N/A   Clear
8:54 AM 77.0 °F - 66.0 °F 69% 29.85 in 10.0 mi West 5.8 mph - N/A   Clear
9:54 AM 79.0 °F - 64.9 °F 62% 29.85 in 10.0 mi NW 9.2 mph - N/A   Mostly Cloudy
10:54 AM 79.0 °F - 64.0 °F 60% 29.86 in 10.0 mi NW 9.2 mph 17.3 mph N/A   Overcast
11:54 AM 78.1 °F - 64.0 °F 62% 29.87 in 10.0 mi NNW 10.4 mph 18.4 mph 0.01 in   Partly Cloudy
12:54 PM 80.1 °F 81.2 °F 62.1 °F 54% 29.86 in 10.0 mi NW 11.5 mph 17.3 mph N/A   Partly Cloudy
1:54 PM 82.0 °F 82.7 °F 61.0 °F 49% 29.85 in 10.0 mi NW 11.5 mph 18.4 mph N/A   Clear
2:54 PM 82.0 °F 82.4 °F 60.1 °F 47% 29.85 in 10.0 mi NNW 15.0 mph 21.9 mph N/A   Partly Cloudy
3:54 PM 82.0 °F 82.1 °F 59.0 °F 45% 29.84 in 10.0 mi NW 12.7 mph 20.7 mph N/A   Clear
4:54 PM 81.0 °F 80.4 °F 53.1 °F 38% 29.85 in 10.0 mi North 11.5 mph - N/A   Clear
5:54 PM 79.0 °F - 48.0 °F 34% 29.86 in 10.0 mi NNW 10.4 mph - N/A   Clear
6:54 PM 73.9 °F - 37.0 °F 26% 29.88 in 10.0 mi NNW 8.1 mph 16.1 mph N/A   Partly Cloudy
7:54 PM 71.1 °F - 34.0 °F 26% 29.89 in 10.0 mi NNW 8.1 mph - N/A   Mostly Cloudy
8:54 PM 66.9 °F - 39.0 °F 36% 29.92 in 10.0 mi Calm Calm - N/A   Scattered Clouds
9:54 PM 66.0 °F - 41.0 °F 40% 29.93 in 10.0 mi NNW 5.8 mph - N/A   Partly Cloudy
10:54 PM 64.0 °F - 43.0 °F 46% 29.95 in 10.0 mi NNW 3.5 mph - N/A   Overcast
11:54 PM 63.0 °F - 42.1 °F 46% 29.96 in 10.0 mi NNW 5.8 mph - N/A   Scattered Clouds